Погода в Сучжоу

Китай     31°18′31″N   120°35′51″E
темп.,
°C
ветер,
м/с
пор.,
м/с
влажн.,
%
обл.,
%
осадки,
мм/ч
давл.,
гПа
погр.,
м
24 января, пн
пн2423:00+8ссв4991100 0.9 1021574
02:00+7ссв5991100 2.8 1021581
05:00+6ссв5889100 3.1 1021603
08:00+6ссв5886100 5.2 1023536
11:00+6ссв4580100 0.2 1024558
14:00+6ссв4578100 0.3 1022543
17:00+6ссв3477100 0.0 1023542
20:00+6ссв3476100 0.0 1024482
25 января, вт
вт2523:00+6ссв3377100 0.1 1025432
02:00+5ссв2375100 0.2 1024412
05:00+5ссв2379100 0.3 1024354
08:00+5св2381100 0.5 1025368
11:00+5ссв2276100 0.0 1026451
14:00+6ссв2271100 0.0 1023532
17:00+6св2271100 0.0 1024519
20:00+6св2373100 0.0 1025338
26 января, ср
ср2623:00+6всв2375100 0.0 1026199
02:00+5всв3475100 0.3 1025349
05:00+5всв3678100 0.4 1025397
08:00+5всв3575100 0.6 1026455
11:00+6всв3677100 0.3 1027499
14:00+6всв3780100 0.8 1024606
17:00+6всв4789100 3.0 1024718
20:00+6св5889100 5.7 1026691
27 января, чт
чт2723:00+6св5990100 1.3 1027697
02:00+6св61090100 2.8 1026629
05:00+5св61091100 2.1 1025578
08:00+5св6992100 5.0 1027600
11:00+5св61092100 2.5 1027624
14:00+5св6991100 5.8 1025707
17:00+4св51096100 4.6 1026617
20:00+3св4996100 8.3 1028541
28 января, пт
пт2823:00+3ссв4896100 2.3 1028577
02:00+3св3798100 6.3 1028419
05:00+3ссв3797100 1.6 1027567
08:00+3ссв4994100 1.9 1028629
11:00+5св4771100 0.1 1028879
14:00+5св4575100 0.6 1026784
17:00+5св5681100 0.3 1026759
20:00+5св4771100 0.4 1027837